{"data":{"norad_id":62312,"epoch":"2026-09-21T18:16:43.832352Z","epoch_age_seconds":68336,"freshness":"FRESH","line1":"1 62312U 24239M   26264.76161843  .00030827  00000+0  91943-3 0  9998","line2":"2 62312  53.1604 359.6292 0001020  88.9904 271.1216 15.34410973 99456","mean_motion":15.34410973,"eccentricity":0.000102,"inclination_deg":53.1604,"raan_deg":359.6292,"arg_perigee_deg":88.9904,"mean_anomaly_deg":271.1216,"bstar":0.00091943,"rev_number":9945,"period_min":93.847086949892,"perigee_km":461.97286395512,"apogee_km":463.3683887109,"semimajor_km":6840.807626333,"source":"CELESTRAK","updated_at":"2026-09-22T09:00:49.573058Z"}}